TJS-2 (41911 NORAD) Tracking and Keplerian Element Data

This shows tracking and keplerian element data for the satellite.

Feedback or suggestion? Click here.




ElementValue
Catalog41911
NameTJS-2
Epoch Orbit2732
Epoch Day159.92603062
Epoch Year2024
RAAN270.0493
Inclination0.2314
Eccentricity0.0001876
Argument of Perigee159.5079
Mean Anonmoly227.1963
Mean Motion1.00270359
Decay Rate-7E-08
L11 41911U 17001A 24159.92603062 -.00000007 00000+0 00000+0 0 9990
L22 41911 0.2314 270.0493 0001876 159.5079 227.1963 1.00270359 27322



Live tracking and technical data element details for TJS-2 (NORAD 41911). TJS-2 can be tracked NOW for your location showing map with azimuth and elevation plus other details from your city location.







IsCatalogInMostPopularTable: catalog: 41911, numindb: 716
Update: records affected: 1



GetName: 41911 TJS-2

Hit Count: updated at: Tue, 18 Jun 2024 00:04:56 GMT